Flag for United Kingdom Weather past 2 weeks in Rotherham, England, United Kingdom

Now
60 °F

Smoke.


Feels Like: 60 °F
Forecast: 57 / 71 °F
Wind: N/A

Location: Nottingham Weather Centre

Current Time: Sep 17, 2014 at 7:02:00 PM

Latest Report: Sep 17, 2014 at 6:00 PM


Visibility: 2 mi

Pressure: 29.91 "Hg

Humidity: 94%

Dew point: 58 °F

Location of RotherhamLocation

Historic Weather in Rotherham — Graph

°F

Rotherham temperature yesterday

Maximum temperature yesterday: 67 °F (at 4:00 PM)
Minimum temperature yesterday: 56 °F (at 3:00 AM)
Average temperature yesterday: 59 °F

Past Weeks' High & Low Weather Summary

 TemperatureHumidityPressure
High70 °F (Sep 10, 5:00 PM)100% (Sep 3, 4:00 AM)30.39 "Hg (Sep 3, 4:00 AM)
Low46 °F (Sep 8, 6:00 AM)47% (Sep 7, 4:00 PM)29.92 "Hg (Sep 17, 5:00 PM)
Average58 °F87%30.14 "Hg
* Reported Sep 2 5:00 PM — Sep 17 5:00 PM, Rotherham, Weather by CustomWeather, © 2014

Note: Actual official high and low records may vary slightly from our data, if they occured in-between our weather recording intervals... More about our weather records

Advertising

Rotherham weather history for previous 24 hours

 ConditionsComfort  
Time TempWeatherWind HumidityBarometerVisibility
5:00 PM
Sep 17
61 °FSmoke.N/A90%29.92 "Hg4 mi
4:00 PM64 °FSmoke.N/A80%29.92 "Hg5 mi
3:00 PM62 °FSmoke.N/A86%29.93 "Hg5 mi
2:00 PM62 °FSmoke.N/A85%29.94 "Hg5 mi
1:00 PM60 °FSmoke.7 mphN/A29.95 "Hg2 mi
12:00 PM59 °FSmoke.8 mphN/A29.96 "Hg3 mi
11:00 AM59 °FSmoke.8 mphN/A29.97 "Hg2 mi
10:00 AM58 °FFog.8 mph100%29.97 "Hg2 mi
9:00 AM58 °FFog.5 mph100%29.97 "Hg2 mi
8:00 AM57 °FFog.6 mph100%29.98 "Hg2 mi
7:00 AM57 °FFog.5 mph100%29.97 "Hg2 mi
6:00 AM57 °FFog.6 mph100%29.97 "Hg2 mi
5:00 AM58 °FFog.6 mph100%29.97 "Hg2 mi
4:00 AM58 °FFog.6 mph100%29.98 "Hg2 mi
3:00 AM58 °FFog.6 mph100%29.99 "Hg3 mi
2:00 AM58 °FFog.5 mph100%30.01 "Hg3 mi
1:00 AM59 °FFog.7 mph100%30.01 "Hg4 mi
12:00 AM59 °FFog.8 mph100%30.01 "Hg3 mi
11:00 PM
Sep 16
59 °FFog.10 mph100%30.01 "Hg4 mi
10:00 PM59 °FFog.7 mph100%30.02 "Hg3 mi
9:00 PM58 °FFog.7 mph100%30.02 "Hg3 mi
8:00 PM61 °FSmoke.12 mph94%29.99 "Hg5 mi
7:00 PM64 °FMild.8 mph86%29.98 "Hg6 mi
Weather by CustomWeather, © 2014

See weather overviewHow to use our weather pages